EW9044 Weather Reports


time (UTC)temp
F
wind
direction
speed
knots
gust
knots
rain 1hr
in
rain 24hr
in
rain mn
in
humidity
%
barometer
mb
20260507170050 53 0.0 0.0 0.00 0.00 0.00 29 1010.3
20260507164552 53 0.0 0.0 0.00 0.00 0.00 32 1010.4
20260507163043 52 0.0 0.0 0.00 0.00 0.00 36 1010.6
20260507161542 51 0.0 0.0 0.00 0.00 0.00 37 1010.6
20260507160101 50 0.0 0.0 0.00 0.00 0.00 41 1010.8
20260507154536 50 0.0 0.0 0.00 0.00 0.00 40 1010.7
20260507153031 49 0.0 0.0 0.00 0.00 0.00 42 1010.8
20260507151529 48 0.0 0.0 0.00 0.00 0.00 41 1010.9
20260507150031 47 0.0 0.0 0.00 0.00 0.00 44 1010.8
20260507144522 46 0.0 0.0 0.00 0.00 0.00 48 1011.0
20260507143019 45 0.0 0.0 0.00 0.00 0.00 51 1011.1
20260507141515 44 0.0 0.0 0.00 0.00 0.00 50 1011.2
20260507140026 43 0.0 0.0 0.00 0.00 0.00 61 1011.2
20260507134510 41 0.0 0.0 0.00 0.00 0.00 66 1011.2
20260507133008 39 0.0 0.0 0.00 0.00 0.00 69 1011.3
20260507131507 37 0.0 0.0 0.00 0.00 0.00 74 1011.4
20260507130006 35 0.0 0.0 0.00 0.00 0.00 79 1011.4
20260507124505 34 0.0 0.0 0.00 0.00 0.00 83 1011.6
20260507123005 33 0.0 0.0 0.00 0.00 0.00 81 1011.6
20260507121504 33 0.0 0.0 0.00 0.00 0.00 81 1011.7
20260507120003 32 0.0 0.0 0.00 0.00 0.00 81 1011.7
20260507114502 32 0.0 0.0 0.00 0.00 0.00 81 1011.6
20260507113001 32 0.0 0.0 0.00 0.00 0.00 79 1011.6
20260507111602 32 0.0 0.0 0.00 0.00 0.00 79 1011.5
20260507110106 32 0.0 0.0 0.00 0.00 0.00 78 1011.5
20260507104611 32 0.0 0.0 0.00 0.00 0.00 77 1011.6
20260507103058 33 0.0 0.0 0.00 0.00 0.00 77 1011.5
20260507101558 33 0.0 0.0 0.00 0.00 0.00 77 1011.6
20260507100059 33 0.0 0.0 0.00 0.00 0.00 77 1011.5
20260507094604 33 0.0 0.0 0.00 0.00 0.00 77 1011.5
20260507093051 34 0.0 0.0 0.00 0.00 0.00 77 1011.6
20260507091551 34 0.0 0.0 0.00 0.00 0.00 78 1011.7
20260507090048 34 0.0 0.0 0.00 0.00 0.00 78 1011.7
20260507084556 35 0.0 0.0 0.00 0.00 0.00 78 1011.7
20260507083045 35 0.0 0.0 0.00 0.00 0.00 77 1011.7
20260507081542 36 0.0 0.0 0.00 0.00 0.00 77 1011.7
20260507080040 37 0.0 0.0 0.00 0.00 0.00 76 1011.7
20260507074537 37 0.0 0.0 0.00 0.00 0.00 74 1011.7
20260507073035 38 0.0 0.0 0.00 0.00 0.00 71 1011.8
20260507071537 38 0.0 0.0 0.00 0.00 0.00 69 1012.0
20260507070030 38 0.0 0.0 0.00 0.00 0.00 68 1012.1
20260507064527 39 0.0 0.0 0.00 0.00 0.00 66 1012.2
20260507063027 39 0.0 0.0 0.00 0.00 0.00 66 1012.3
20260507061528 40 0.0 0.0 0.00 0.00 0.00 65 1012.4
20260507060034 41 0.0 0.0 0.00 0.00 0.00 62 1012.5
20260507054527 41 0.0 0.0 0.00 0.00 0.00 62 1012.5
20260507053017 41 0.0 0.0 0.00 0.00 0.00 61 1012.6
20260507051517 41 0.0 0.0 0.00 0.00 0.00 62 1012.6
20260507050035 42 0.0 0.0 0.00 0.00 0.00 61 1012.7
20260507044520 42 0.0 0.0 0.00 0.00 0.00 61 1012.8
20260507043012 42 0.0 0.0 0.00 0.00 0.00 62 1012.8
20260507041512 42 0.0 0.0 0.00 0.00 0.00 62 1012.9
20260507040014 42 0.0 0.0 0.00 0.00 0.00 61 1013.1
20260507034512 41 0.0 0.0 0.00 0.00 0.00 60 1013.1
20260507033015 41 0.0 0.0 0.00 0.00 0.00 61 1013.2
20260507031509 41 0.0 0.0 0.00 0.00 0.00 60 1013.2
20260507030010 41 0.0 0.0 0.00 0.00 0.00 60 1013.3
20260507024512 41 0.0 0.0 0.00 0.00 0.00 60 1013.3
20260507023008 41 0.0 0.0 0.00 0.00 0.00 59 1013.3
20260507021517 42 0.0 0.0 0.00 0.00 0.00 57 1013.4
20260507020010 42 0.0 0.0 0.00 0.00 0.00 57 1013.3
20260507014506 43 0.0 0.0 0.00 0.00 0.00 56 1013.2
20260507013008 44 0.0 0.0 0.00 0.00 0.00 54 1013.3
20260507011514 44 0.0 0.0 0.00 0.00 0.00 49 1013.3
20260507010008 45 0.0 0.0 0.00 0.00 0.00 49 1013.3
20260507004504 46 0.0 0.0 0.00 0.00 0.00 47 1013.4
20260507003004 46 0.0 0.0 0.00 0.00 0.00 48 1013.3
20260507001502 47 0.0 0.0 0.00 0.00 0.00 47 1013.5
20260507000003 46 0.0 0.0 0.00 0.00 0.00 48 1013.4
20260506234502 46 0.0 0.0 0.00 0.00 0.00 47 1013.5
20260506233002 47 0.0 0.0 0.00 0.00 0.00 47 1013.6
20260506231501 47 0.0 0.0 0.00 0.00 0.00 48 1013.6
20260506230000 48 0.0 0.0 0.00 0.00 0.00 46 1013.6
20260506224600 48 0.0 0.0 0.00 0.00 0.00 46 1013.6
20260506223102 48 0.0 0.0 0.00 0.00 0.00 45 1013.6
20260506221559 48 0.0 0.0 0.00 0.00 0.00 47 1013.6
20260506221505 48 0.0 0.0 0.00 0.00 0.00 47 1013.7
20260506220058 48 0.0 0.0 0.00 0.00 0.00 47 1013.7
20260506214556 47 0.0 0.0 0.00 0.00 0.00 47 1013.9
20260506213055 47 0.0 0.0 0.00 0.00 0.00 49 1014.0
20260506211557 47 0.0 0.0 0.00 0.00 0.00 48 1014.1
20260506210054 47 0.0 0.0 0.00 0.00 0.00 49 1014.2
20260506204557 46 0.0 0.0 0.00 0.00 0.00 50 1014.4
20260506203052 47 0.0 0.0 0.00 0.00 0.00 49 1014.4
20260506201548 45 0.0 0.0 0.00 0.00 0.00 54 1014.5
20260506200105 45 0.0 0.0 0.00 0.00 0.00 53 1014.5
20260506194549 45 0.0 0.0 0.00 0.00 0.00 51 1014.6
20260506193043 45 0.0 0.0 0.00 0.00 0.00 51 1014.6
20260506191543 44 0.0 0.0 0.00 0.00 0.00 53 1014.7
20260506190042 45 0.0 0.0 0.00 0.00 0.00 52 1014.7
20260506184542 45 0.0 0.0 0.00 0.00 0.00 52 1014.7
20260506183054 44 0.0 0.0 0.00 0.00 0.00 53 1014.7
20260506181544 44 0.0 0.0 0.00 0.00 0.00 52 1014.8
20260506180040 44 0.0 0.0 0.00 0.00 0.00 53 1014.8
20260506174538 44 0.0 0.0 0.00 0.00 0.00 50 1014.8
20260506173034 43 0.0 0.0 0.00 0.00 0.00 52 1015.0
20260506171541 43 0.0 0.0 0.00 0.00 0.00 53 1015.2